[[{"header":{"parameterUnit":"m.s-1","parameterCategory":1,"la1":30.2991,"la2":30.254,"lo1":-89.0895,"lo2":-89.0444,"dy":0.0017,"dx":0.0017,"nx":28,"ny":28,"refTime":"2023-09-17T21:00:00:Z","depth":0,"parameterNumber":2,"parameterNumberName":"U-component_of_WINDS"},"data":[0,0,0,0,0,0,0,0,0,0,0,0,0,0,0,0,0,0,0,0,0,0,0,0,0,0,0,0,0,0,0,0,0,0,0,0,0,0,0,0,0,0,0,0,0,0,0,0,0,0,0,0,0,0,0,0,0,0,1.9081,1.908,0,1.9015,1.9014,1.9013,1.8938,1.8937,1.8936,1.8935,1.8866,1.8865,1.8864,0,0,0,0,0,0,0,0,0,0,0,0,0,1.9143,1.9142,1.9081,1.908,1.908,1.9015,1.9014,1.9013,1.8939,1.8937,1.8936,1.8935,1.8866,1.8865,1.8864,0,0,0,0,0,0,0,0,0,0,0,0,0,1.91,1.9142,1.9081,1.9035,1.903,1.9015,1.9014,1.9013,1.8939,1.8937,1.8935,1.8934,1.8866,1.8865,1.8864,1.889,0,0,1.886,1.886,0,0,0,0,0,0,0,0,1.9103,1.9098,1.9042,1.9038,1.9032,1.8983,1.901,1.8972,1.8939,1.8973,1.8935,1.8933,1.8906,1.8902,1.8893,1.8886,1.8884,1.886,1.8859,1.8859,1.8859,0,0,0,0,0,0,0,1.9106,1.91,1.9055,1.9042,1.9035,1.9017,1.9009,1.9003,1.895,1.897,1.8965,1.8958,1.8903,1.8894,1.889,1.8882,1.886,1.8859,1.8858,1.8858,1.8895,1.8897,0,0,0,0,0,0,1.9116,1.9103,1.9057,1.9053,1.9064,1.9017,1.9008,1.9001,1.895,1.894,1.8959,1.8955,1.8897,1.8892,1.8888,1.8915,1.8859,1.8858,1.8857,1.8893,1.8895,1.8897,0,0,0,0,0,0,1.9117,1.9112,1.906,1.9077,1.9068,1.9018,1.901,1.9,1.8991,1.8941,1.8932,1.896,1.8895,1.8889,1.889,1.8912,1.8857,1.8856,1.8891,1.8894,1.8896,1.897,0,0,0,0,0,0,1.912,1.9113,1.9123,1.9077,1.9068,1.9063,1.9011,1.9,1.8989,1.8983,1.8939,1.8931,1.8894,1.8892,1.8889,1.8909,1.8855,1.8889,1.8893,1.8896,1.8965,1.8975,1.8983,0,0,0,0,0,1.9122,1.9145,1.9124,1.9118,1.9078,1.9065,1.9059,1.9017,1.8991,1.9,1.8969,1.8932,1.891,1.8893,1.8889,1.8909,1.8888,1.8892,1.8895,1.8961,1.8973,1.8982,0,0,0,0,0,0,1.9194,1.9139,1.9114,1.9123,1.91,1.9052,1.9062,1.903,1.9012,1.9007,1.8954,1.8945,1.8952,1.893,1.8912,1.8931,1.8894,1.8897,1.8945,1.8956,1.8964,1.8969,1.8854,0,0,0,0,0,1.9211,1.9205,1.9157,1.917,1.9159,1.9113,1.9105,1.9075,1.9048,1.9037,1.9005,1.898,1.8968,1.8961,1.8946,1.8962,1.8952,1.8974,1.8982,1.899,1.8993,1.9,1.901,1.891,1.891,1.891,0,0,1.9246,1.9215,1.9214,1.9184,1.9161,1.9156,1.9105,1.9101,1.9097,1.9036,1.9035,1.9012,1.898,1.8989,1.8991,1.8971,1.9018,1.8995,1.9001,1.9,1.9005,1.9015,1.9023,1.8913,1.8912,1.8912,0,0,1.9307,1.9283,1.9291,1.9271,1.9238,1.9208,1.921,1.9168,1.915,1.9148,1.9103,1.9097,1.9077,1.9056,1.9043,1.9099,1.9065,1.9096,1.9141,1.9149,1.9157,1.9163,1.9183,1.9191,1.9099,1.9099,1.9099,0,1.9354,1.9345,1.93,1.93,1.9288,1.9234,1.9242,1.9224,1.9189,1.9182,1.916,1.9134,1.9109,1.9112,1.9126,1.9117,1.9118,1.91,1.9159,1.9165,1.9171,1.919,1.9197,1.9103,1.9103,1.9102,1.9102,0,1.9405,1.9399,1.941,1.9378,1.9368,1.9372,1.9328,1.9322,1.9293,1.9265,1.9265,1.9233,1.9212,1.921,1.9181,1.921,1.9199,1.9169,1.913,1.9185,1.9202,1.9209,1.9109,1.9107,1.9106,1.9105,0,0,1.9508,1.9453,1.9457,1.9443,1.9404,1.9398,1.9401,1.9381,1.9377,1.9355,1.9355,1.934,1.9313,1.9298,1.9266,1.9274,1.932,1.9242,1.9241,1.9258,1.9351,1.9374,1.9383,1.9298,1.9299,1.93,1.9353,0,1.9562,1.9563,1.9523,1.9535,1.953,1.9479,1.9481,1.9458,1.9432,1.9423,1.9394,1.9384,1.9348,1.9339,1.9344,1.9314,1.9338,1.9309,1.9297,1.9298,1.9307,1.9391,1.9415,1.9467,1.936,1.9361,1.9361,0,1.9625,1.9608,1.962,1.9581,1.9577,1.958,1.9559,1.9551,1.9524,1.9505,1.949,1.9454,1.9453,1.9417,1.9416,1.9397,1.939,1.9374,1.9375,1.9372,1.9333,1.9391,1.9483,1.9491,1.9371,1.937,1.937,0,1.97,1.9679,1.9684,1.9673,1.9628,1.9631,1.9613,1.9584,1.9575,1.9556,1.955,1.9532,1.9522,1.9509,1.9469,1.9446,1.9473,1.9433,1.9457,1.9458,1.9464,1.9464,1.9557,1.946,1.946,1.946,1.946,0,1.9765,1.9774,1.9717,1.972,1.9729,1.9683,1.9693,1.967,1.9645,1.9642,1.9597,1.9596,1.9544,1.9536,1.9506,1.951,1.9505,1.949,1.9481,1.9494,1.9496,1.9488,1.9484,1.9462,1.9461,1.9461,1.946,0,1.985,1.9812,1.9814,1.9772,1.9762,1.977,1.9734,1.9735,1.9707,1.9704,1.9701,1.9657,1.9646,1.9605,1.9584,1.9564,1.9578,1.9561,1.9587,1.9582,1.9608,1.9606,1.9699,1.9709,1.9606,1.9607,1.9608,0,1.9893,1.9899,1.9859,1.9854,1.9838,1.9831,1.9822,1.9778,1.977,1.974,1.9745,1.9731,1.9717,1.9702,1.9668,1.9652,1.9635,1.9668,1.9632,1.9645,1.9635,1.9636,1.9636,1.9676,1.9677,1.9678,1.9679,0,1.9975,1.9957,1.9946,1.9929,1.9919,1.9903,1.9885,1.9883,1.9834,1.9828,1.9817,1.9806,1.9786,1.9772,1.9751,1.9731,1.9698,1.9691,1.9696,1.9709,1.9723,1.9716,1.9609,1.9689,1.9688,1.9687,1.9687,1.9687,2.0041,2.0044,2.0017,2.0006,1.9988,1.9972,1.9971,1.9943,1.9934,1.9914,1.9888,1.9881,1.9854,1.9822,1.9805,1.9798,1.9779,1.9786,1.9788,1.979,1.9796,1.9725,1.9794,1.9794,1.9793,1.9793,1.9793,0,2.0121,2.0101,2.0092,2.0068,2.006,2.0029,2.0008,2.0003,1.9997,1.9975,1.9963,1.995,1.9938,1.9903,1.9887,1.9888,1.9872,1.9885,1.9885,1.9881,1.9814,1.9812,1.9898,1.9898,1.9898,1.9898,1.9898,1.9898,2.0161,2.0166,2.0144,2.014,2.0119,2.0112,2.0102,2.0088,2.007,2.0059,2.0048,2.0026,1.9999,1.998,1.9967,1.9957,1.9954,1.9972,1.9957,1.9895,1.9885,1.9876,1.9873,1.9972,1.9972,2.0024,2.0025,2.0025]},{"header":{"parameterUnit":"m.s-1","parameterCategory":1,"la1":30.2991,"la2":30.254,"lo1":-89.0895,"lo2":-89.0444,"dy":0.0017,"dx":0.0017,"nx":28,"ny":28,"refTime":"2023-09-17T21:00:00:Z","depth":0,"parameterNumber":3,"parameterNumberName":"V-component_of_WINDS"},"data":[0,0,0,0,0,0,0,0,0,0,0,0,0,0,0,0,0,0,0,0,0,0,0,0,0,0,0,0,0,0,0,0,0,0,0,0,0,0,0,0,0,0,0,0,0,0,0,0,0,0,0,0,0,0,0,0,0,0,-3.0371,-3.0371,0,-3.0427,-3.0428,-3.0428,-3.044,-3.0439,-3.0439,-3.0438,-3.0495,-3.0497,-3.0499,0,0,0,0,0,0,0,0,0,0,0,0,0,-3.0272,-3.0274,-3.0371,-3.0371,-3.0372,-3.0427,-3.0428,-3.0429,-3.044,-3.0439,-3.0439,-3.0438,-3.0494,-3.0497,-3.0499,0,0,0,0,0,0,0,0,0,0,0,0,0,-3.0321,-3.0275,-3.037,-3.0384,-3.0386,-3.0427,-3.0428,-3.0429,-3.044,-3.0439,-3.0439,-3.0438,-3.0494,-3.0496,-3.0499,-3.053,0,0,-3.0508,-3.0509,0,0,0,0,0,0,0,0,-3.0318,-3.0324,-3.0381,-3.0383,-3.0385,-3.0426,-3.0414,-3.0463,-3.044,-3.0419,-3.0438,-3.0438,-3.0472,-3.0477,-3.0489,-3.0533,-3.0535,-3.0508,-3.051,-3.0511,-3.0512,0,0,0,0,0,0,0,-3.0314,-3.0322,-3.0393,-3.0382,-3.0385,-3.0388,-3.0394,-3.0423,-3.0449,-3.0421,-3.0422,-3.0429,-3.0473,-3.0486,-3.049,-3.0536,-3.0508,-3.0511,-3.0512,-3.0514,-3.061,-3.0611,0,0,0,0,0,0,-3.0309,-3.0319,-3.0391,-3.0395,-3.0349,-3.039,-3.0397,-3.0413,-3.0448,-3.0453,-3.0429,-3.0429,-3.0482,-3.0487,-3.0492,-3.0532,-3.0511,-3.0514,-3.0516,-3.0609,-3.061,-3.0611,0,0,0,0,0,0,-3.0307,-3.0315,-3.0389,-3.0357,-3.0367,-3.0392,-3.0411,-3.0415,-3.0428,-3.0455,-3.0459,-3.0438,-3.0481,-3.0488,-3.0521,-3.0534,-3.0515,-3.0518,-3.0608,-3.061,-3.0611,-3.0611,0,0,0,0,0,0,-3.0304,-3.0314,-3.0326,-3.0357,-3.0368,-3.0417,-3.0412,-3.0416,-3.0433,-3.0433,-3.0464,-3.0468,-3.0481,-3.0517,-3.0524,-3.0538,-3.052,-3.0607,-3.0609,-3.061,-3.061,-3.0613,-3.0614,0,0,0,0,0,-3.03,-3.0323,-3.0327,-3.0335,-3.0384,-3.0417,-3.0424,-3.0439,-3.0434,-3.0446,-3.0464,-3.0467,-3.0532,-3.052,-3.0528,-3.0543,-3.0606,-3.0608,-3.061,-3.0609,-3.0612,-3.0614,0,0,0,0,0,0,-3.0292,-3.0327,-3.0332,-3.0365,-3.0388,-3.0419,-3.0435,-3.0441,-3.0465,-3.0464,-3.0481,-3.0488,-3.0521,-3.0535,-3.0522,-3.0576,-3.0569,-3.0572,-3.0565,-3.0568,-3.057,-3.0566,-3.0522,0,0,0,0,0,-3.0294,-3.0318,-3.0348,-3.0375,-3.0387,-3.0409,-3.0424,-3.0434,-3.0458,-3.0468,-3.0488,-3.0511,-3.0537,-3.0553,-3.0578,-3.0613,-3.062,-3.0627,-3.0629,-3.0631,-3.0634,-3.0655,-3.0659,-3.0617,-3.0617,-3.0617,0,0,-3.0298,-3.0321,-3.0335,-3.0374,-3.0393,-3.0418,-3.0417,-3.0443,-3.0462,-3.0471,-3.0504,-3.052,-3.0547,-3.0581,-3.0598,-3.0595,-3.0647,-3.0633,-3.0634,-3.0636,-3.0657,-3.0661,-3.0665,-3.0619,-3.0619,-3.0618,0,0,-3.032,-3.0339,-3.0364,-3.0384,-3.0413,-3.0428,-3.0434,-3.0465,-3.0476,-3.0509,-3.0517,-3.054,-3.0584,-3.0604,-3.0619,-3.0651,-3.0655,-3.0658,-3.0669,-3.0689,-3.0693,-3.0696,-3.0708,-3.0712,-3.0661,-3.0661,-3.0661,0,-3.0322,-3.036,-3.0376,-3.0403,-3.0421,-3.0432,-3.0458,-3.0476,-3.0511,-3.0524,-3.052,-3.0576,-3.0595,-3.0635,-3.0643,-3.0655,-3.0663,-3.0655,-3.0691,-3.0694,-3.0697,-3.0709,-3.0714,-3.0661,-3.0661,-3.0661,-3.0661,0,-3.0362,-3.0389,-3.0406,-3.0441,-3.0461,-3.0487,-3.0508,-3.0525,-3.0534,-3.055,-3.0584,-3.0608,-3.0639,-3.0649,-3.0657,-3.0691,-3.0688,-3.0687,-3.0681,-3.0701,-3.0713,-3.0718,-3.0662,-3.0662,-3.0661,-3.0661,0,0,-3.0378,-3.0424,-3.043,-3.0447,-3.0481,-3.0502,-3.053,-3.0561,-3.0576,-3.0601,-3.0625,-3.0663,-3.0663,-3.0681,-3.0692,-3.0709,-3.0735,-3.0707,-3.0708,-3.0712,-3.0775,-3.0776,-3.0781,-3.0738,-3.0739,-3.074,-3.0774,0,-3.0405,-3.0454,-3.0471,-3.0512,-3.0538,-3.055,-3.0574,-3.0598,-3.0613,-3.0638,-3.0655,-3.0682,-3.068,-3.0691,-3.0709,-3.0728,-3.0748,-3.0726,-3.0761,-3.0762,-3.0755,-3.0787,-3.0788,-3.0818,-3.0778,-3.0779,-3.0779,0,-3.0442,-3.0469,-3.0513,-3.0546,-3.0557,-3.0578,-3.0609,-3.0632,-3.066,-3.067,-3.0691,-3.0701,-3.0731,-3.0723,-3.0765,-3.0749,-3.0765,-3.0777,-3.0778,-3.0783,-3.0772,-3.0793,-3.0828,-3.0833,-3.0787,-3.0786,-3.0785,0,-3.0451,-3.0498,-3.0531,-3.0545,-3.0584,-3.0599,-3.0616,-3.0643,-3.0661,-3.0688,-3.07,-3.073,-3.0747,-3.077,-3.0788,-3.0779,-3.0829,-3.0821,-3.0839,-3.0838,-3.0849,-3.0848,-3.0888,-3.0858,-3.0857,-3.0857,-3.0857,0,-3.0479,-3.0506,-3.0536,-3.0557,-3.0588,-3.0607,-3.0637,-3.0654,-3.0679,-3.0703,-3.0715,-3.0737,-3.0759,-3.0785,-3.0799,-3.0833,-3.084,-3.085,-3.0853,-3.0849,-3.0848,-3.086,-3.0859,-3.0859,-3.0858,-3.0858,-3.0858,0,-3.0495,-3.0516,-3.0553,-3.0587,-3.0597,-3.0618,-3.0647,-3.0668,-3.0685,-3.0716,-3.0724,-3.0751,-3.0782,-3.0802,-3.0841,-3.0851,-3.0888,-3.0891,-3.0879,-3.0881,-3.0898,-3.0897,-3.0947,-3.0956,-3.0919,-3.0919,-3.092,0,-3.0512,-3.0533,-3.057,-3.0588,-3.0605,-3.0633,-3.0652,-3.0672,-3.0692,-3.0726,-3.0743,-3.0775,-3.0802,-3.0851,-3.0874,-3.0905,-3.0909,-3.0925,-3.0913,-3.0909,-3.0911,-3.0909,-3.0912,-3.0926,-3.0927,-3.0927,-3.0927,0,-3.054,-3.055,-3.0577,-3.0609,-3.0632,-3.0658,-3.0684,-3.0697,-3.0722,-3.0744,-3.0776,-3.0797,-3.0839,-3.0871,-3.0904,-3.0922,-3.0929,-3.0931,-3.0937,-3.0933,-3.0926,-3.0931,-3.0885,-3.0929,-3.0929,-3.0929,-3.0929,-3.0929,-3.0558,-3.0578,-3.0608,-3.0638,-3.066,-3.0685,-3.0706,-3.0727,-3.0754,-3.079,-3.08,-3.0835,-3.0864,-3.0909,-3.0928,-3.0955,-3.0953,-3.0961,-3.0964,-3.0966,-3.0967,-3.0921,-3.0961,-3.0961,-3.0961,-3.0961,-3.0961,0,-3.0587,-3.0608,-3.0636,-3.0672,-3.0697,-3.0702,-3.0732,-3.0752,-3.0783,-3.0809,-3.0836,-3.0874,-3.0906,-3.0932,-3.0965,-3.0983,-3.0987,-3.0991,-3.099,-3.0994,-3.0966,-3.0958,-3.0987,-3.0987,-3.0987,-3.0987,-3.0987,-3.0987,-3.0606,-3.0641,-3.0655,-3.0701,-3.0721,-3.0756,-3.0772,-3.0795,-3.0817,-3.086,-3.0887,-3.0904,-3.093,-3.0966,-3.0996,-3.1003,-3.1015,-3.1018,-3.1026,-3.0999,-3.0996,-3.0993,-3.0986,-3.102,-3.102,-3.1052,-3.1053,-3.1053]}]]